• In Russia
  • List of Countries
  • For 7 days
  • Water Temperature
  • Satellite Maps
  • Weather Map
  • Weather Widgets
  • user-avatar
    Login

    Hourly Weather Orsha

    Today, 16 January, Wednesday

    Time Temperature Precipitation Wind Pressure Humidity
    00:00 -12°C° 0 mm 2 mps 728 mmHg 96%
    01:00 -13°C° 0 mm 2 mps 728 mmHg 95%
    02:00 -13°C° 0 mm 2 mps 728 mmHg 95%
    03:00 -13°C° 0 mm 2 mps 728 mmHg 95%
    04:00 -13°C° 0 mm 2 mps 728 mmHg 96%
    05:00 -14°C° 0 mm 2 mps 728 mmHg 96%
    06:00 -13°C° 0 mm 2 mps 729 mmHg 96%
    07:00 -13°C° 0 mm 2 mps 729 mmHg 96%
    08:00 -13°C° 0 mm 2 mps 729 mmHg 96%
    09:00 -12°C° 0 mm 3 mps 730 mmHg 95%
    10:00 -9°C° 0 mm 3 mps 731 mmHg 94%
    11:00 -8°C° 0 mm 4 mps 731 mmHg 94%
    12:00 -8°C° 0 mm 4 mps 732 mmHg 92%
    13:00 -8°C° 0 mm 4 mps 732 mmHg 90%
    14:00 -7°C° 0 mm 5 mps 733 mmHg 89%
    15:00 -7°C° 0 mm 4 mps 733 mmHg 89%
    16:00 -8°C° 0 mm 4 mps 734 mmHg 89%
    17:00 -8°C° 0 mm 4 mps 735 mmHg 89%
    18:00 -10°C° 0 mm 4 mps 735 mmHg 92%
    19:00 -12°C° 0 mm 3 mps 735 mmHg 94%
    20:00 -13°C° 0 mm 3 mps 736 mmHg 97%
    21:00 -14°C° 0 mm 3 mps 736 mmHg 96%
    22:00 -14°C° 0 mm 3 mps 736 mmHg 95%
    23:00 -14°C° 0 mm 3 mps 737 mmHg 95%

    Tomorrow, 17 January, Thursday

    Time Temperature Precipitation Wind Pressure Humidity
    00:00 -14°C° 0 mm 4 mps 736 mmHg 95%
    01:00 -12°C° 0 mm 4 mps 736 mmHg 94%
    02:00 -13°C° 0 mm 5 mps 736 mmHg 94%
    03:00 -11°C° 0.1 mm 5 mps 736 mmHg 94%
    04:00 -10°C° 0.1 mm 6 mps 735 mmHg 94%
    05:00 -9°C° 0.1 mm 7 mps 734 mmHg 93%
    06:00 -8°C° 0 mm 7 mps 734 mmHg 93%
    07:00 -6°C° 0 mm 7 mps 734 mmHg 93%
    08:00 -4°C° 0 mm 7 mps 733 mmHg 93%
    09:00 -4°C° 0.2 mm 8 mps 733 mmHg 94%
    10:00 -4°C° 0.2 mm 8 mps 733 mmHg 95%
    11:00 -2°C° 0.2 mm 8 mps 733 mmHg 96%
    12:00 -2°C° 0.3 mm 8 mps 732 mmHg 96%
    13:00 -2°C° 0.3 mm 8 mps 731 mmHg 95%
    14:00 -3°C° 0.3 mm 9 mps 731 mmHg 95%
    15:00 -2°C° 0.1 mm 8 mps 731 mmHg 93%
    16:00 -2°C° 0.1 mm 8 mps 731 mmHg 91%
    17:00 -2°C° 0.1 mm 8 mps 731 mmHg 89%
    18:00 -2°C° 0.1 mm 8 mps 731 mmHg 89%
    19:00 -2°C° 0.1 mm 7 mps 731 mmHg 89%
    20:00 -2°C° 0.1 mm 7 mps 731 mmHg 90%
    21:00 -2°C° 0 mm 7 mps 731 mmHg 89%
    22:00 -2°C° 0 mm 6 mps 731 mmHg 89%
    23:00 -3°C° 0 mm 6 mps 732 mmHg 89%

    Day after tomorrow, 18 January, Friday

    Time Temperature Precipitation Wind Pressure Humidity
    00:00 -3°C° 0 mm 6 mps 732 mmHg 89%
    01:00 -2°C° 0 mm 7 mps 731 mmHg 90%
    02:00 -2°C° 0 mm 7 mps 731 mmHg 90%
    03:00 -2°C° 0 mm 7 mps 731 mmHg 90%
    04:00 -2°C° 0 mm 8 mps 730 mmHg 91%
    05:00 -3°C° 0 mm 9 mps 730 mmHg 91%
    06:00 -3°C° 0.1 mm 9 mps 730 mmHg 88%
    07:00 -2°C° 0.1 mm 8 mps 730 mmHg 86%
    08:00 -2°C° 0.1 mm 8 mps 730 mmHg 84%
    09:00 -4°C° 0 mm 8 mps 731 mmHg 84%
    10:00 -5°C° 0 mm 8 mps 731 mmHg 83%
    11:00 -5°C° 0 mm 9 mps 732 mmHg 83%
    12:00 -5°C° 0.1 mm 8 mps 732 mmHg 83%
    13:00 -5°C° 0.1 mm 8 mps 733 mmHg 82%
    14:00 -4°C° 0.1 mm 7 mps 733 mmHg 82%
    15:00 -6°C° 0 mm 7 mps 734 mmHg 82%
    16:00 -8°C° 0 mm 6 mps 734 mmHg 83%
    17:00 -9°C° 0 mm 6 mps 735 mmHg 84%
    18:00 -9°C° 0 mm 6 mps 736 mmHg 84%
    19:00 -10°C° 0 mm 6 mps 736 mmHg 84%
    20:00 -10°C° 0 mm 6 mps 737 mmHg 84%
    21:00 -10°C° 0 mm 6 mps 738 mmHg 85%
    22:00 -10°C° 0 mm 6 mps 738 mmHg 85%
    23:00 -10°C° 0 mm 6 mps 739 mmHg 86%

    19 January, Saturday

    Time Temperature Precipitation Wind Pressure Humidity
    00:00 -10°C° 0 mm 6 mps 739 mmHg 87%
    01:00 -11°C° 0 mm 7 mps 740 mmHg 87%
    02:00 -9°C° 0 mm 7 mps 740 mmHg 88%
    03:00 -10°C° 0 mm 6 mps 741 mmHg 88%
    04:00 -10°C° 0 mm 6 mps 741 mmHg 88%
    05:00 -11°C° 0 mm 6 mps 741 mmHg 87%
    06:00 -11°C° 0 mm 6 mps 742 mmHg 87%
    07:00 -11°C° 0 mm 6 mps 742 mmHg 87%
    08:00 -11°C° 0 mm 6 mps 743 mmHg 86%
    09:00 -11°C° 0 mm 6 mps 743 mmHg 86%
    10:00 -10°C° 0 mm 6 mps 743 mmHg 86%
    11:00 -9°C° 0 mm 6 mps 744 mmHg 86%
    12:00 -9°C° 0 mm 6 mps 744 mmHg 87%
    13:00 -8°C° 0 mm 5 mps 744 mmHg 88%
    14:00 -7°C° 0 mm 5 mps 744 mmHg 89%
    15:00 -8°C° 0 mm 5 mps 744 mmHg 90%
    16:00 -8°C° 0 mm 5 mps 744 mmHg 91%
    17:00 -8°C° 0 mm 5 mps 744 mmHg 91%
    18:00 -8°C° 0 mm 5 mps 744 mmHg 91%
    19:00 -8°C° 0 mm 5 mps 744 mmHg 91%
    20:00 -8°C° 0 mm 5 mps 744 mmHg 91%
    21:00 -9°C° 0 mm 4 mps 744 mmHg 91%
    22:00 -9°C° 0 mm 4 mps 744 mmHg 92%
    23:00 -10°C° 0 mm 4 mps 744 mmHg 93%

    20 January, Sunday

    Time Temperature Precipitation Wind Pressure Humidity
    00:00 -11°C° 0 mm 4 mps 744 mmHg 94%
    01:00 -11°C° 0 mm 4 mps 744 mmHg 94%
    02:00 -12°C° 0 mm 3 mps 744 mmHg 94%
    03:00 -12°C° 0 mm 3 mps 744 mmHg 95%
    04:00 -12°C° 0 mm 3 mps 744 mmHg 95%
    05:00 -12°C° 0 mm 3 mps 744 mmHg 96%
    06:00 -12°C° 0 mm 3 mps 744 mmHg 96%
    07:00 -12°C° 0 mm 3 mps 744 mmHg 97%
    08:00 -10°C° 0 mm 3 mps 744 mmHg 97%
    09:00 -9°C° 0.1 mm 3 mps 744 mmHg 96%
    10:00 -8°C° 0.1 mm 3 mps 744 mmHg 96%
    11:00 -7°C° 0.1 mm 3 mps 744 mmHg 95%
    12:00 -7°C° 0.2 mm 3 mps 744 mmHg 95%
    13:00 -7°C° 0.2 mm 3 mps 743 mmHg 95%
    14:00 -5°C° 0.2 mm 2 mps 743 mmHg 94%
    15:00 -6°C° 0.4 mm 2 mps 743 mmHg 95%
    16:00 -6°C° 0.4 mm 2 mps 743 mmHg 96%
    17:00 -4°C° 0.4 mm 1 mps 743 mmHg 96%
    18:00 -7°C° 0.1 mm 2 mps 743 mmHg 96%
    19:00 -8°C° 0.1 mm 2 mps 743 mmHg 95%
    20:00 -10°C° 0.1 mm 3 mps 743 mmHg 95%
    21:00 -10°C° 0 mm 3 mps 743 mmHg 95%
    22:00 -10°C° 0 mm 2 mps 743 mmHg 95%
    23:00 -10°C° 0 mm 2 mps 743 mmHg 95%

    21 January, Monday

    Time Temperature Precipitation Wind Pressure Humidity
    00:00 -10°C° 0 mm 2 mps 744 mmHg 95%
    01:00 -9°C° 0 mm 2 mps 744 mmHg 95%
    02:00 -9°C° 0 mm 2 mps 744 mmHg 95%
    03:00 -9°C° 0 mm 2 mps 744 mmHg 95%
    04:00 -10°C° 0 mm 3 mps 745 mmHg 95%
    05:00 -10°C° 0 mm 3 mps 745 mmHg 96%
    06:00 -11°C° 0 mm 4 mps 745 mmHg 95%
    07:00 -11°C° 0 mm 4 mps 746 mmHg 93%
    08:00 -12°C° 0 mm 5 mps 746 mmHg 92%
    09:00 -13°C° 0 mm 5 mps 747 mmHg 92%
    10:00 -14°C° 0 mm 5 mps 747 mmHg 91%
    11:00 -14°C° 0 mm 5 mps 748 mmHg 90%
    12:00 -14°C° 0 mm 5 mps 748 mmHg 90%
    13:00 -14°C° 0 mm 5 mps 749 mmHg 89%
    14:00 -14°C° 0 mm 5 mps 749 mmHg 89%
    15:00 -15°C° 0 mm 4 mps 749 mmHg 90%
    16:00 -16°C° 0 mm 4 mps 750 mmHg 92%
    17:00 -15°C° 0 mm 3 mps 750 mmHg 93%
    18:00 -16°C° 0 mm 3 mps 750 mmHg 94%
    19:00 -16°C° 0 mm 3 mps 750 mmHg 94%
    20:00 -16°C° 0 mm 3 mps 750 mmHg 95%
    21:00 -16°C° 0 mm 2 mps 750 mmHg 96%
    22:00 -17°C° 0 mm 2 mps 750 mmHg 96%
    23:00 -18°C° 0 mm 2 mps 750 mmHg 97%
    Show more